Time,TemperatureF,DewpointF,PressureIn,WindDirection,WindDirectionDegrees,WindSpeedMPH,WindSpeedGustMPH,Humidity,HourlyPrecipIn,Conditions,Clouds,dailyrainin,SoftwareType,DateUTC
2013-09-11 00:10:00,75.7,72.9,30.07,WNW,287,0.0,0.0,91,0.00,,,0.00,Wunderground v.1.15,2013-09-11 04:10:00,
2013-09-11 00:13:00,75.6,73.0,30.07,WNW,287,0.0,0.0,91,0.00,,,0.00,weatherlink.com 1.10,2013-09-11 04:13:00,
2013-09-11 00:20:00,75.6,72.8,30.08,WNW,288,0.0,0.0,91,0.00,,,0.00,Wunderground v.1.15,2013-09-11 04:20:00,
2013-09-11 00:28:00,75.6,73.0,30.08,WNW,288,0.0,1.0,91,0.00,,,0.00,weatherlink.com 1.10,2013-09-11 04:28:00,
2013-09-11 00:30:00,75.6,72.8,30.08,WNW,288,0.0,0.0,91,0.00,,,0.00,Wunderground v.1.15,2013-09-11 04:30:00,
2013-09-11 00:40:00,75.5,72.7,30.07,WNW,288,0.0,0.0,91,0.00,,,0.00,Wunderground v.1.15,2013-09-11 04:40:00,
2013-09-11 00:50:00,75.3,72.5,30.07,WNW,288,0.0,0.0,91,0.00,,,0.00,Wunderground v.1.15,2013-09-11 04:50:00,
2013-09-11 00:57:00,75.3,73.0,30.07,WNW,288,0.0,0.0,91,0.00,,,0.00,weatherlink.com 1.10,2013-09-11 04:57:00,
2013-09-11 01:00:00,75.2,72.4,30.07,WNW,288,0.0,0.0,91,0.00,,,0.00,Wunderground v.1.15,2013-09-11 05:00:00,
2013-09-11 01:10:00,75.1,72.3,30.07,WNW,287,0.0,0.0,91,0.00,,,0.00,Wunderground v.1.15,2013-09-11 05:10:00,
2013-09-11 01:20:00,75.1,72.3,30.07,WNW,287,0.0,0.0,91,0.00,,,0.00,Wunderground v.1.15,2013-09-11 05:20:00,
2013-09-11 01:28:00,75.0,72.0,30.07,WNW,286,0.0,3.0,91,0.00,,,0.00,weatherlink.com 1.10,2013-09-11 05:28:00,
2013-09-11 01:40:00,75.0,72.2,30.07,WNW,286,0.0,0.0,91,0.00,,,0.00,Wunderground v.1.15,2013-09-11 05:40:00,
2013-09-11 01:50:00,74.8,72.3,30.06,WNW,286,0.0,0.0,92,0.00,,,0.00,Wunderground v.1.15,2013-09-11 05:50:00,
2013-09-11 01:58:00,74.6,72.0,30.06,WNW,286,0.0,1.0,92,0.00,,,0.00,weatherlink.com 1.10,2013-09-11 05:58:00,
2013-09-11 02:10:00,74.2,71.7,30.05,WNW,286,0.0,0.0,92,0.00,,,0.00,Wunderground v.1.15,2013-09-11 06:10:00,
2013-09-11 02:20:00,73.9,71.7,30.05,WNW,286,0.0,0.0,93,0.00,,,0.00,Wunderground v.1.15,2013-09-11 06:20:00,
2013-09-11 02:29:00,73.9,72.0,30.05,WNW,286,0.0,1.0,93,0.00,,,0.00,weatherlink.com 1.10,2013-09-11 06:29:00,
2013-09-11 02:40:00,73.9,71.7,30.05,WNW,286,0.0,0.0,93,0.00,,,0.00,Wunderground v.1.15,2013-09-11 06:40:00,
2013-09-11 02:50:00,74.0,71.8,30.05,WNW,286,0.0,0.0,93,0.00,,,0.00,Wunderground v.1.15,2013-09-11 06:50:00,
2013-09-11 02:59:00,73.9,72.0,30.05,WNW,286,0.0,0.0,93,0.00,,,0.00,weatherlink.com 1.10,2013-09-11 06:59:00,
2013-09-11 03:10:00,73.8,71.6,30.05,WNW,286,0.0,0.0,93,0.00,,,0.00,Wunderground v.1.15,2013-09-11 07:10:00,
2013-09-11 03:20:00,73.5,71.4,30.05,WNW,286,0.0,0.0,93,0.00,,,0.00,Wunderground v.1.15,2013-09-11 07:20:00,
2013-09-11 03:29:00,73.4,72.0,30.05,WNW,286,0.0,2.0,94,0.00,,,0.00,weatherlink.com 1.10,2013-09-11 07:29:00,
2013-09-11 03:40:00,73.4,71.6,30.05,WNW,286,0.0,0.0,94,0.00,,,0.00,Wunderground v.1.15,2013-09-11 07:40:00,
2013-09-11 03:45:00,73.3,72.0,30.05,WNW,286,0.0,0.0,94,0.00,,,0.00,weatherlink.com 1.10,2013-09-11 07:45:00,
2013-09-11 04:00:00,73.1,71.3,30.04,WNW,286,0.0,0.0,94,0.00,,,0.00,Wunderground v.1.15,2013-09-11 08:00:00,
2013-09-11 04:10:00,73.0,71.2,30.04,WNW,286,0.0,0.0,94,0.00,,,0.00,Wunderground v.1.15,2013-09-11 08:10:00,
2013-09-11 04:15:00,72.8,71.0,30.04,WNW,286,0.0,0.0,94,0.00,,,0.00,weatherlink.com 1.10,2013-09-11 08:15:00,
2013-09-11 04:29:00,72.6,71.0,30.04,WNW,286,0.0,0.0,95,0.00,,,0.00,weatherlink.com 1.10,2013-09-11 08:29:00,
2013-09-11 04:40:00,72.4,70.9,30.04,WNW,286,0.0,0.0,95,0.00,,,0.00,Wunderground v.1.15,2013-09-11 08:40:00,
2013-09-11 04:45:00,72.4,71.0,30.04,WNW,286,0.0,0.0,95,0.00,,,0.00,weatherlink.com 1.10,2013-09-11 08:45:00,
2013-09-11 05:00:00,72.2,70.7,30.04,WNW,286,0.0,0.0,95,0.00,,,0.00,Wunderground v.1.15,2013-09-11 09:00:00,
2013-09-11 05:10:00,72.0,70.5,30.05,WNW,286,0.0,0.0,95,0.00,,,0.00,Wunderground v.1.15,2013-09-11 09:10:00,
2013-09-11 05:15:00,71.9,71.0,30.05,WNW,286,0.0,0.0,95,0.00,,,0.00,weatherlink.com 1.10,2013-09-11 09:15:00,
2013-09-11 05:30:00,71.7,70.5,30.05,WNW,286,0.0,0.0,96,0.00,,,0.00,Wunderground v.1.15,2013-09-11 09:30:00,
2013-09-11 05:40:00,71.6,70.4,30.05,WNW,286,0.0,0.0,96,0.00,,,0.00,Wunderground v.1.15,2013-09-11 09:40:00,
2013-09-11 05:45:00,71.5,70.0,30.05,WNW,286,0.0,0.0,96,0.00,,,0.00,weatherlink.com 1.10,2013-09-11 09:45:00,
2013-09-11 06:00:00,71.2,70.0,30.06,WNW,286,0.0,0.0,96,0.00,,,0.00,Wunderground v.1.15,2013-09-11 10:00:00,
2013-09-11 06:10:00,71.0,69.8,30.06,WNW,286,0.0,0.0,96,0.00,,,0.00,Wunderground v.1.15,2013-09-11 10:10:00,
2013-09-11 06:15:00,71.0,70.0,30.06,WNW,286,0.0,0.0,96,0.00,,,0.00,weatherlink.com 1.10,2013-09-11 10:15:00,
2013-09-11 06:30:00,71.0,69.8,30.06,WNW,286,0.0,0.0,96,0.00,,,0.00,Wunderground v.1.15,2013-09-11 10:30:00,
2013-09-11 06:40:00,71.0,70.1,30.07,WNW,286,0.0,0.0,97,0.00,,,0.00,Wunderground v.1.15,2013-09-11 10:40:00,
2013-09-11 06:45:00,71.0,70.0,30.07,WNW,286,0.0,0.0,97,0.00,,,0.00,weatherlink.com 1.10,2013-09-11 10:45:00,
2013-09-11 07:00:00,70.9,70.0,30.07,WNW,286,0.0,0.0,97,0.00,,,0.00,Wunderground v.1.15,2013-09-11 11:00:00,
2013-09-11 07:10:00,71.0,70.1,30.08,WNW,286,0.0,0.0,97,0.00,,,0.00,Wunderground v.1.15,2013-09-11 11:10:00,
2013-09-11 07:17:00,71.1,70.0,30.08,WNW,286,0.0,0.0,97,0.00,,,0.00,weatherlink.com 1.10,2013-09-11 11:17:00,
2013-09-11 07:30:00,71.3,70.0,30.09,WNW,286,0.0,0.0,97,0.00,,,0.00,weatherlink.com 1.10,2013-09-11 11:30:00,
2013-09-11 07:45:00,71.9,71.0,30.09,WNW,286,0.0,0.0,97,0.00,,,0.00,weatherlink.com 1.10,2013-09-11 11:45:00,
2013-09-11 08:00:00,72.3,71.0,30.08,WNW,286,0.0,3.0,97,0.00,,,0.00,weatherlink.com 1.10,2013-09-11 12:00:00,
2013-09-11 08:15:00,72.6,72.0,30.08,WNW,286,2.0,3.0,97,0.00,,,0.00,weatherlink.com 1.10,2013-09-11 12:15:00,
2013-09-11 08:30:00,73.0,72.0,30.09,WNW,286,0.0,1.0,97,0.00,,,0.00,weatherlink.com 1.10,2013-09-11 12:30:00,
2013-09-11 08:45:00,73.5,72.0,30.09,WNW,286,0.0,1.0,96,0.00,,,0.00,weatherlink.com 1.10,2013-09-11 12:45:00,
2013-09-11 09:00:00,74.3,73.0,30.09,WNW,286,0.0,0.0,95,0.00,,,0.00,weatherlink.com 1.10,2013-09-11 13:00:00,
2013-09-11 09:15:00,75.3,74.0,30.09,WNW,284,0.0,1.0,94,0.00,,,0.00,weatherlink.com 1.10,2013-09-11 13:15:00,
2013-09-11 09:30:00,76.3,74.0,30.09,WNW,284,0.0,0.0,93,0.00,,,0.00,weatherlink.com 1.10,2013-09-11 13:30:00,
2013-09-11 09:45:00,77.5,75.0,30.08,WNW,284,0.0,1.0,91,0.00,,,0.00,weatherlink.com 1.10,2013-09-11 13:45:00,
2013-09-11 10:00:00,78.8,75.0,30.08,WNW,292,0.0,3.0,89,0.00,,,0.00,weatherlink.com 1.10,2013-09-11 14:00:00,
2013-09-11 10:16:00,80.0,76.0,30.08,WNW,292,0.0,1.0,87,0.00,,,0.00,weatherlink.com 1.10,2013-09-11 14:16:00,
2013-09-11 10:31:00,81.4,77.0,30.08,WNW,293,0.0,1.0,85,0.00,,,0.00,weatherlink.com 1.10,2013-09-11 14:31:00,
2013-09-11 10:46:00,82.5,77.0,30.07,WNW,293,0.0,1.0,82,0.00,,,0.00,weatherlink.com 1.10,2013-09-11 14:46:00,
2013-09-11 11:01:00,83.5,77.0,30.07,West,269,0.0,5.0,81,0.00,,,0.00,weatherlink.com 1.10,2013-09-11 15:01:00,
2013-09-11 11:16:00,84.4,78.0,30.06,West,269,0.0,4.0,80,0.00,,,0.00,weatherlink.com 1.10,2013-09-11 15:16:00,
2013-09-11 11:31:00,85.4,77.0,30.06,West,267,0.0,4.0,77,0.00,,,0.00,weatherlink.com 1.10,2013-09-11 15:31:00,
2013-09-11 11:46:00,86.3,78.0,30.06,West,265,0.0,2.0,76,0.00,,,0.00,weatherlink.com 1.10,2013-09-11 15:46:00,
2013-09-11 12:01:00,87.3,79.0,30.05,West,265,0.0,2.0,75,0.00,,,0.00,weatherlink.com 1.10,2013-09-11 16:01:00,
2013-09-11 12:16:00,88.1,78.0,30.05,WNW,292,1.0,5.0,73,0.00,,,0.00,weatherlink.com 1.10,2013-09-11 16:16:00,
2013-09-11 12:31:00,89.1,79.0,30.05,WNW,302,0.0,7.0,71,0.00,,,0.00,weatherlink.com 1.10,2013-09-11 16:31:00,
2013-09-11 12:46:00,90.1,79.0,30.04,West,277,0.0,3.0,69,0.00,,,0.00,weatherlink.com 1.10,2013-09-11 16:46:00,
2013-09-11 13:01:00,91.1,78.0,30.04,South,185,1.0,4.0,65,0.00,,,0.00,weatherlink.com 1.10,2013-09-11 17:01:00,
2013-09-11 13:16:00,91.7,78.0,30.03,NW,322,0.0,4.0,65,0.00,,,0.00,weatherlink.com 1.10,2013-09-11 17:16:00,
2013-09-11 13:31:00,92.3,77.0,30.02,WNW,296,0.0,3.0,62,0.00,,,0.00,weatherlink.com 1.10,2013-09-11 17:31:00,
2013-09-11 13:46:00,92.6,78.0,30.01,WNW,286,0.0,6.0,62,0.00,,,0.00,weatherlink.com 1.10,2013-09-11 17:46:00,
2013-09-11 14:01:00,93.3,77.0,30.00,WNW,286,0.0,2.0,60,0.00,,,0.00,weatherlink.com 1.10,2013-09-11 18:01:00,
2013-09-11 14:16:00,93.8,78.0,30.00,NW,323,0.0,4.0,60,0.00,,,0.00,weatherlink.com 1.10,2013-09-11 18:16:00,
2013-09-11 14:31:00,93.5,78.0,29.99,West,263,0.0,4.0,60,0.00,,,0.00,weatherlink.com 1.10,2013-09-11 18:31:00,
2013-09-11 14:46:00,93.6,78.0,29.99,NW,311,2.0,5.0,61,0.00,,,0.00,weatherlink.com 1.10,2013-09-11 18:46:00,
2013-09-11 15:01:00,93.8,78.0,29.98,NNW,333,0.0,5.0,61,0.00,,,0.00,weatherlink.com 1.10,2013-09-11 19:01:00,
2013-09-11 15:16:00,93.6,78.0,29.98,South,191,0.0,6.0,60,0.00,,,0.00,weatherlink.com 1.10,2013-09-11 19:16:00,
2013-09-11 15:32:00,94.0,78.0,29.97,WSW,250,0.0,8.0,60,0.00,,,0.00,weatherlink.com 1.10,2013-09-11 19:32:00,
2013-09-11 15:47:00,93.6,77.0,29.97,WNW,299,1.0,7.0,59,0.00,,,0.00,weatherlink.com 1.10,2013-09-11 19:47:00,
2013-09-11 16:02:00,93.5,78.0,29.97,West,264,0.0,4.0,60,0.00,,,0.00,weatherlink.com 1.10,2013-09-11 20:02:00,
2013-09-11 16:17:00,93.1,78.0,29.96,NW,325,3.0,6.0,61,0.00,,,0.00,weatherlink.com 1.10,2013-09-11 20:17:00,
2013-09-11 16:32:00,92.6,78.0,29.95,West,263,0.0,5.0,62,0.00,,,0.00,weatherlink.com 1.10,2013-09-11 20:32:00,
2013-09-11 16:47:00,92.6,77.0,29.95,WNW,303,0.0,6.0,61,0.00,,,0.00,weatherlink.com 1.10,2013-09-11 20:47:00,
2013-09-11 17:02:00,92.4,78.0,29.95,WNW,296,0.0,5.0,63,0.00,,,0.00,weatherlink.com 1.10,2013-09-11 21:02:00,
2013-09-11 17:17:00,92.4,78.0,29.94,West,278,0.0,3.0,62,0.00,,,0.00,weatherlink.com 1.10,2013-09-11 21:17:00,
2013-09-11 17:32:00,91.7,78.0,29.93,West,280,0.0,1.0,64,0.00,,,0.00,weatherlink.com 1.10,2013-09-11 21:32:00,
2013-09-11 17:47:00,91.3,78.0,29.94,West,271,0.0,3.0,65,0.00,,,0.00,weatherlink.com 1.10,2013-09-11 21:47:00,
2013-09-11 18:02:00,90.3,77.0,29.96,WNW,302,4.0,7.0,65,0.00,,,0.00,weatherlink.com 1.10,2013-09-11 22:02:00,
2013-09-11 18:17:00,89.1,77.0,29.97,WNW,282,0.0,7.0,67,0.00,,,0.00,weatherlink.com 1.10,2013-09-11 22:17:00,
2013-09-11 18:32:00,88.2,76.0,29.96,NW,304,0.0,1.0,68,0.00,,,0.00,weatherlink.com 1.10,2013-09-11 22:32:00,
2013-09-11 18:47:00,87.4,77.0,29.97,West,277,0.0,5.0,70,0.00,,,0.00,weatherlink.com 1.10,2013-09-11 22:47:00,
2013-09-11 19:02:00,86.7,77.0,29.97,West,278,0.0,1.0,72,0.00,,,0.00,weatherlink.com 1.10,2013-09-11 23:02:00,
2013-09-11 19:17:00,86.0,76.0,29.98,West,277,0.0,1.0,73,0.00,,,0.00,weatherlink.com 1.10,2013-09-11 23:17:00,
2013-09-11 19:32:00,85.3,76.0,29.98,West,277,0.0,0.0,74,0.00,,,0.00,weatherlink.com 1.10,2013-09-11 23:32:00,
2013-09-11 19:47:00,84.9,76.0,29.98,West,278,0.0,2.0,75,0.00,,,0.00,weatherlink.com 1.10,2013-09-11 23:47:00,
2013-09-11 20:02:00,84.7,76.0,29.98,West,277,0.0,2.0,75,0.00,,,0.00,weatherlink.com 1.10,2013-09-12 00:02:00,
2013-09-11 20:17:00,84.3,76.0,29.98,West,277,0.0,0.0,76,0.00,,,0.00,weatherlink.com 1.10,2013-09-12 00:17:00,
2013-09-11 20:32:00,83.8,76.0,29.98,West,277,0.0,0.0,77,0.00,,,0.00,weatherlink.com 1.10,2013-09-12 00:32:00,
2013-09-11 20:47:00,83.1,76.0,29.98,West,277,0.0,0.0,79,0.00,,,0.00,weatherlink.com 1.10,2013-09-12 00:47:00,
2013-09-11 21:02:00,82.4,75.0,29.99,WNW,284,0.0,12.0,78,0.00,,,0.00,weatherlink.com 1.10,2013-09-12 01:02:00,
2013-09-11 21:17:00,82.2,74.0,29.99,WSW,252,1.0,2.0,76,0.00,,,0.00,weatherlink.com 1.10,2013-09-12 01:17:00,
2013-09-11 21:32:00,81.7,73.0,29.99,WSW,258,0.0,3.0,75,0.00,,,0.00,weatherlink.com 1.10,2013-09-12 01:32:00,
2013-09-11 21:47:00,81.0,72.0,30.00,WSW,258,0.0,1.0,75,0.00,,,0.00,weatherlink.com 1.10,2013-09-12 01:47:00,
2013-09-11 22:02:00,80.5,72.0,29.99,WSW,258,0.0,2.0,75,0.00,,,0.00,weatherlink.com 1.10,2013-09-12 02:02:00,
2013-09-11 22:17:00,79.9,71.0,29.99,WSW,258,0.0,1.0,74,0.00,,,0.00,weatherlink.com 1.10,2013-09-12 02:17:00,
2013-09-11 22:32:00,79.5,70.0,29.99,WSW,239,0.0,3.0,73,0.00,,,0.00,weatherlink.com 1.10,2013-09-12 02:32:00,
2013-09-11 22:47:00,79.2,71.0,29.98,WSW,239,0.0,0.0,75,0.00,,,0.00,weatherlink.com 1.10,2013-09-12 02:47:00,
2013-09-11 23:02:00,78.3,70.0,29.98,WSW,239,0.0,0.0,76,0.00,,,0.00,weatherlink.com 1.10,2013-09-12 03:02:00,
2013-09-11 23:17:00,77.6,70.0,29.97,WSW,239,0.0,0.0,78,0.00,,,0.00,weatherlink.com 1.10,2013-09-12 03:17:00,
2013-09-11 23:32:00,77.1,70.0,29.96,WSW,239,0.0,0.0,79,0.00,,,0.00,weatherlink.com 1.10,2013-09-12 03:32:00,
2013-09-11 23:47:00,76.4,71.0,29.96,WSW,239,0.0,0.0,82,0.00,,,0.00,weatherlink.com 1.10,2013-09-12 03:47:00,